ATLAS 5 CENTAUR DEB, 43974

Orbit data source: Space-Track

ATLAS 5 CENTAUR DEB, 43974 is space debris in HEO originally from a launch on Wed, 17 Sep 2014 UTC launched from the Air Force Eastern Test Range (AFETR). Debris objects in space refer to the collection of defunct objects orbiting the Earth. Examples of debris include non-operational satellites, rocket bodies, and fragments generated from explosions, collisions, or faulty payload assembly.

Loading next visibility...
Identifier
43974, 2014-055AD
Orbit
HEO
Last TLE update
7 months ago
Origin
Manufacturer
Unknown
Mission
Spacecraft
Bus & Motor
Unknown
Mass
Unknown
Launch date (UTC)
2014-09-17 (11 years ago)
Launch vehicle
Unknown
Launch site
Air Force Eastern Test Range (AFETR)
Object type
Payload
Rocket body
Debris
Shape & HBR
Unknown
Radar Cross Section
Small (<0.1 m²)

Expand to show TLE details & history

TLE from 7 months ago
0 ATLAS 5 CENTAUR DEB
1 43974U 14055AD  24275.23317249 -.00000023  00000-0  00000-0 0  9999
2 43974  19.6556 194.9279 5015527  70.9832 335.4443  1.84493390 41008
Epoch: 2024-10-01T05:35Z
Definitive object data (Epoch: 2024-10-01T05:35:46.103Z)
Latitude
0.00006°
Longitude
100.53264°
Altitude
11,708.713 km
Speed
5.466 km/s
True Right ascension
12h 59m 41s
True Declination
0° 00' 00"
Sunlit
Object was in daylight at TLE epoch
Visualization TLE readout
Latitude
-5.74793°
Longitude
62.03221°
Altitude
23,326.239 km
Speed
3.556 km/s
Apparent Right ascension
10h 52m 34s
Apparent Declination
-15° 13' 11"
Sunlit
Object is in daylight
Visualization observer readout
Local Sidereal Time
07:52:58
Azimuth
133.216° SE
Elevation
20.842°
Doppler factor
1
Orbital elements
Apogee altitude
35,790.211 km
Perigee altitude
7,619.839 km
Semi-major axis
28,083.162 km
Eccentricity
0.5015527
Inclination
19.6556°
RAAN
194.9279°
Arg. of periapsis
70.9832°
True anomaly
288.83185°
Mean anomaly
335.4443°
Eccentric anomaly
315.19275°
Mean motion
0.46118 °/min
BSTAR
Unknown
Orbital period
780.6 mins
Loading maneuver chart data...
Loading SW <> Apogee altitude chart data...
Loading historical data...
Loading historical data...
Loading historical data...
Loading historical data...
Loading historical data...
Loading historical data...
Loading historical data...

ATLAS 5 CENTAUR DEB Visibility forecast

Observer location: undefined°, undefined°

Span
Click to sort rows by Start time (UTC) header in descending order
Start Az.
Max El. time (UTC)
Max El. Az.
Max El.
End time (UTC)
End Az.
82 mins2025-04-30 00:20:37.644Z133.233° SE2025-04-30 00:22:37.644Z132.903° SE19.576°2025-04-30 01:42:37.644Z104.156° ESE
502 mins2025-04-30 15:58:37.644Z258.874° W2025-04-30 16:38:37.644Z200.559° SSW27.464°2025-05-01 00:20:37.644Z172.422° S
|